• En España
  • Lista de países
  • Para 7 días
  • Temperatura del agua
  • Mapa Satelital
  • El tiempo en el mapa
  • Informadores
  • user-avatar
    Iniciar sesión

    Tiempo cada hora Escaldes-Engordany

    Hoy, 19 Octubre, Viernes

    Tiempo Temperatura Precipitaciones Viento Presión Humedad
    00:00 +9°C° 0 mm 2 mps 638 mmHg 92%
    01:00 +9°C° 0.1 mm 2 mps 638 mmHg 92%
    02:00 +9°C° 0.1 mm 2 mps 638 mmHg 92%
    03:00 +9°C° 0.1 mm 2 mps 638 mmHg 91%
    04:00 +9°C° 0.1 mm 2 mps 639 mmHg 91%
    05:00 +9°C° 0.1 mm 2 mps 639 mmHg 91%
    06:00 +9°C° 0.1 mm 1 mps 639 mmHg 91%
    07:00 +10°C° 0.2 mm 1 mps 639 mmHg 88%
    08:00 +12°C° 0.2 mm 1 mps 640 mmHg 85%
    09:00 +13°C° 0.2 mm 1 mps 641 mmHg 81%
    10:00 +13°C° 0.4 mm 1 mps 641 mmHg 80%
    11:00 +14°C° 0.4 mm 1 mps 641 mmHg 78%
    12:00 +14°C° 0.4 mm 1 mps 642 mmHg 76%
    13:00 +14°C° 1.8 mm 1 mps 641 mmHg 79%
    14:00 +13°C° 1.8 mm 2 mps 641 mmHg 81%
    15:00 +13°C° 1.8 mm 2 mps 641 mmHg 83%
    16:00 +12°C° 2.1 mm 1 mps 641 mmHg 86%
    17:00 +11°C° 2.1 mm 1 mps 641 mmHg 88%
    18:00 +11°C° 2.1 mm 1 mps 641 mmHg 91%
    19:00 +10°C° 1 mm 1 mps 641 mmHg 91%
    20:00 +10°C° 1 mm 1 mps 641 mmHg 90%
    21:00 +10°C° 1 mm 1 mps 641 mmHg 90%
    22:00 +10°C° 0.4 mm 1 mps 642 mmHg 90%
    23:00 +10°C° 0.4 mm 1 mps 642 mmHg 90%

    Mañana, 20 Octubre, Sábado

    Tiempo Temperatura Precipitaciones Viento Presión Humedad
    00:00 +10°C° 0.4 mm 1 mps 642 mmHg 90%
    01:00 +10°C° 0.1 mm 1 mps 642 mmHg 89%
    02:00 +9°C° 0.1 mm 1 mps 642 mmHg 89%
    03:00 +9°C° 0.1 mm 1 mps 641 mmHg 89%
    04:00 +9°C° 0.1 mm 1 mps 642 mmHg 89%
    05:00 +9°C° 0.1 mm 1 mps 642 mmHg 89%
    06:00 +9°C° 0.1 mm 1 mps 642 mmHg 88%
    07:00 +10°C° 0.2 mm 1 mps 643 mmHg 85%
    08:00 +12°C° 0.2 mm 1 mps 644 mmHg 81%
    09:00 +13°C° 0.2 mm 1 mps 645 mmHg 77%
    10:00 +14°C° 0.5 mm 1 mps 645 mmHg 74%
    11:00 +15°C° 0.5 mm 1 mps 645 mmHg 70%
    12:00 +16°C° 0.5 mm 1 mps 645 mmHg 67%
    13:00 +15°C° 1 mm 1 mps 645 mmHg 69%
    14:00 +15°C° 1 mm 1 mps 645 mmHg 71%
    15:00 +14°C° 1 mm 1 mps 644 mmHg 74%
    16:00 +13°C° 0.8 mm 1 mps 644 mmHg 79%
    17:00 +11°C° 0.8 mm 0 mps 644 mmHg 84%
    18:00 +10°C° 0.8 mm 0 mps 644 mmHg 90%
    19:00 +9°C° 0.2 mm 0 mps 644 mmHg 90%
    20:00 +10°C° 0.2 mm 1 mps 644 mmHg 90%
    21:00 +10°C° 0.2 mm 1 mps 644 mmHg 89%
    22:00 +10°C° 0 mm 1 mps 644 mmHg 89%
    23:00 +9°C° 0 mm 1 mps 644 mmHg 88%

    Pasado mañana, 21 Octubre, Domingo

    Tiempo Temperatura Precipitaciones Viento Presión Humedad
    00:00 +9°C° 0 mm 1 mps 643 mmHg 87%
    01:00 +9°C° 0 mm 1 mps 643 mmHg 87%
    02:00 +9°C° 0 mm 1 mps 643 mmHg 86%
    03:00 +8°C° 0 mm 1 mps 643 mmHg 85%
    04:00 +8°C° 0 mm 1 mps 643 mmHg 85%
    05:00 +8°C° 0 mm 1 mps 643 mmHg 84%
    06:00 +8°C° 0 mm 1 mps 643 mmHg 84%
    07:00 +10°C° 0 mm 1 mps 644 mmHg 78%
    08:00 +11°C° 0 mm 0 mps 645 mmHg 72%
    09:00 +13°C° 0 mm 0 mps 646 mmHg 66%
    10:00 +14°C° 0 mm 0 mps 646 mmHg 63%
    11:00 +16°C° 0 mm 1 mps 646 mmHg 59%
    12:00 +18°C° 0 mm 1 mps 646 mmHg 56%
    13:00 +18°C° 0.1 mm 1 mps 646 mmHg 59%
    14:00 +16°C° 0.1 mm 1 mps 645 mmHg 62%
    15:00 +15°C° 0.1 mm 1 mps 645 mmHg 66%
    16:00 +14°C° 0 mm 1 mps 644 mmHg 72%
    17:00 +13°C° 0 mm 1 mps 644 mmHg 78%
    18:00 +11°C° 0 mm 1 mps 643 mmHg 84%
    19:00 +11°C° 0 mm 1 mps 643 mmHg 85%
    20:00 +10°C° 0 mm 1 mps 643 mmHg 86%
    21:00 +10°C° 0 mm 1 mps 643 mmHg 87%
    22:00 +9°C° 0 mm 1 mps 643 mmHg 87%
    23:00 +9°C° 0 mm 1 mps 643 mmHg 87%

    22 Octubre, Lunes

    Tiempo Temperatura Precipitaciones Viento Presión Humedad
    00:00 +9°C° 0 mm 1 mps 643 mmHg 87%
    01:00 +8°C° 0 mm 2 mps 643 mmHg 86%
    02:00 +7°C° 0 mm 2 mps 642 mmHg 85%
    03:00 +7°C° 0 mm 2 mps 642 mmHg 84%
    04:00 +7°C° 0 mm 2 mps 642 mmHg 82%
    05:00 +7°C° 0 mm 2 mps 642 mmHg 80%
    06:00 +6°C° 0 mm 2 mps 642 mmHg 78%
    07:00 +8°C° 0 mm 2 mps 643 mmHg 72%
    08:00 +10°C° 0 mm 2 mps 643 mmHg 66%
    09:00 +13°C° 0 mm 2 mps 644 mmHg 60%
    10:00 +14°C° 0 mm 2 mps 645 mmHg 55%
    11:00 +15°C° 0 mm 2 mps 645 mmHg 49%
    12:00 +16°C° 0 mm 3 mps 645 mmHg 44%
    13:00 +16°C° 0 mm 3 mps 645 mmHg 46%
    14:00 +16°C° 0 mm 3 mps 645 mmHg 49%
    15:00 +14°C° 0 mm 3 mps 644 mmHg 51%
    16:00 +12°C° 0 mm 3 mps 644 mmHg 60%
    17:00 +10°C° 0 mm 3 mps 643 mmHg 69%
    18:00 +8°C° 0 mm 3 mps 643 mmHg 79%
    19:00 +7°C° 0 mm 3 mps 643 mmHg 76%
    20:00 +7°C° 0 mm 3 mps 644 mmHg 74%
    21:00 +5°C° 0 mm 3 mps 644 mmHg 71%
    22:00 +5°C° 0 mm 3 mps 644 mmHg 70%
    23:00 +4°C° 0 mm 3 mps 644 mmHg 69%

    23 Octubre, Martes

    Tiempo Temperatura Precipitaciones Viento Presión Humedad
    00:00 +4°C° 0 mm 3 mps 644 mmHg 68%
    01:00 +4°C° 0 mm 3 mps 644 mmHg 68%
    02:00 +3°C° 0 mm 3 mps 644 mmHg 68%
    03:00 +3°C° 0 mm 3 mps 643 mmHg 68%
    04:00 +3°C° 0 mm 3 mps 643 mmHg 69%
    05:00 +3°C° 0 mm 3 mps 643 mmHg 69%
    06:00 +3°C° 0 mm 3 mps 643 mmHg 70%
    07:00 +4°C° 0 mm 3 mps 644 mmHg 65%
    08:00 +7°C° 0 mm 3 mps 645 mmHg 60%
    09:00 +9°C° 0 mm 3 mps 645 mmHg 55%
    10:00 +10°C° 0 mm 3 mps 645 mmHg 51%
    11:00 +11°C° 0 mm 3 mps 646 mmHg 47%
    12:00 +12°C° 0 mm 4 mps 646 mmHg 42%
    13:00 +12°C° 0 mm 4 mps 645 mmHg 44%
    14:00 +11°C° 0 mm 4 mps 645 mmHg 46%
    15:00 +11°C° 0 mm 4 mps 644 mmHg 49%
    16:00 +8°C° 0 mm 4 mps 644 mmHg 58%
    17:00 +7°C° 0 mm 3 mps 643 mmHg 66%
    18:00 +4°C° 0 mm 3 mps 643 mmHg 75%
    19:00 +3°C° 0 mm 3 mps 643 mmHg 74%
    20:00 +3°C° 0 mm 3 mps 643 mmHg 73%
    21:00 +2°C° 0 mm 3 mps 643 mmHg 72%
    22:00 +2°C° 0 mm 3 mps 643 mmHg 70%
    23:00 +2°C° 0 mm 3 mps 643 mmHg 68%

    24 Octubre, Miércoles

    Tiempo Temperatura Precipitaciones Viento Presión Humedad
    00:00 +2°C° 0 mm 3 mps 643 mmHg 66%
    01:00 +2°C° 0 mm 3 mps 643 mmHg 65%
    02:00 +2°C° 0 mm 3 mps 643 mmHg 64%
    03:00 +2°C° 0 mm 3 mps 643 mmHg 63%
    04:00 +2°C° 0 mm 3 mps 644 mmHg 63%
    05:00 +2°C° 0 mm 3 mps 644 mmHg 63%
    06:00 +2°C° 0 mm 3 mps 644 mmHg 64%
    07:00 +4°C° 0 mm 3 mps 644 mmHg 59%
    08:00 +7°C° 0 mm 3 mps 645 mmHg 55%
    09:00 +9°C° 0 mm 3 mps 646 mmHg 51%
    10:00 +10°C° 0 mm 3 mps 646 mmHg 49%
    11:00 +11°C° 0 mm 3 mps 646 mmHg 47%
    12:00 +13°C° 0 mm 3 mps 647 mmHg 45%
    13:00 +13°C° 0 mm 3 mps 646 mmHg 47%
    14:00 +12°C° 0 mm 3 mps 646 mmHg 49%
    15:00 +12°C° 0 mm 3 mps 645 mmHg 51%
    16:00 +10°C° 0 mm 3 mps 645 mmHg 58%
    17:00 +8°C° 0 mm 3 mps 644 mmHg 66%
    18:00 +6°C° 0 mm 2 mps 644 mmHg 73%
    19:00 +5°C° 0 mm 3 mps 644 mmHg 73%
    20:00 +5°C° 0 mm 3 mps 644 mmHg 73%
    21:00 +5°C° 0 mm 3 mps 644 mmHg 73%
    22:00 +5°C° 0 mm 3 mps 644 mmHg 73%
    23:00 +5°C° 0 mm 3 mps 644 mmHg 73%
    Mostrar más